• en Suisse
  • Liste des pays
  • À 7 jours
  • Température de l'eau
  • Carte satellitaire
  • Carte météo
  • Widgets météo
  • user-avatar
    Se connecter

    Météo par heure à Dunedin

    Ce jour, 18 Novembre, Samedi

    Heure Température Précipitation Vent Pression Humidité
    00:00 +5°C° 0 mm 4 m/s 758 mmHg 90%
    01:00 +4°C° 0 mm 3 m/s 758 mmHg 90%
    02:00 +4°C° 0 mm 3 m/s 758 mmHg 91%
    03:00 +4°C° 0 mm 3 m/s 758 mmHg 88%
    04:00 +5°C° 0 mm 3 m/s 758 mmHg 86%
    05:00 +7°C° 0 mm 3 m/s 758 mmHg 80%
    06:00 +9°C° 0 mm 2 m/s 758 mmHg 69%
    07:00 +13°C° 0 mm 2 m/s 758 mmHg 59%
    08:00 +15°C° 0 mm 2 m/s 758 mmHg 49%
    09:00 +17°C° 0 mm 2 m/s 758 mmHg 47%
    10:00 +18°C° 0 mm 2 m/s 758 mmHg 45%
    11:00 +19°C° 0 mm 2 m/s 758 mmHg 45%
    12:00 +19°C° 0 mm 2 m/s 758 mmHg 46%
    13:00 +20°C° 0 mm 3 m/s 758 mmHg 48%
    14:00 +20°C° 0 mm 3 m/s 757 mmHg 49%
    15:00 +19°C° 0 mm 3 m/s 757 mmHg 56%
    16:00 +18°C° 0 mm 2 m/s 757 mmHg 62%
    17:00 +16°C° 0 mm 2 m/s 757 mmHg 69%
    18:00 +14°C° 0 mm 2 m/s 757 mmHg 78%
    19:00 +12°C° 0 mm 2 m/s 758 mmHg 87%
    20:00 +9°C° 0 mm 2 m/s 758 mmHg 96%
    21:00 +9°C° 0 mm 2 m/s 758 mmHg 96%
    22:00 +10°C° 0 mm 1 m/s 757 mmHg 96%
    23:00 +9°C° 0 mm 1 m/s 757 mmHg 99%

    Demain, 19 Novembre, Dimanche

    Heure Température Précipitation Vent Pression Humidité
    00:00 +9°C° 0 mm 1 m/s 757 mmHg 98%
    01:00 +9°C° 0 mm 1 m/s 757 mmHg 97%
    02:00 +9°C° 0 mm 1 m/s 757 mmHg 97%
    03:00 +9°C° 0 mm 1 m/s 756 mmHg 95%
    04:00 +8°C° 0 mm 2 m/s 756 mmHg 94%
    05:00 +8°C° 0 mm 2 m/s 756 mmHg 92%
    06:00 +12°C° 0 mm 2 m/s 756 mmHg 81%
    07:00 +14°C° 0 mm 2 m/s 756 mmHg 69%
    08:00 +17°C° 0 mm 2 m/s 756 mmHg 58%
    09:00 +18°C° 0 mm 2 m/s 756 mmHg 52%
    10:00 +20°C° 0 mm 2 m/s 756 mmHg 47%
    11:00 +21°C° 0 mm 2 m/s 755 mmHg 42%
    12:00 +21°C° 0 mm 2 m/s 755 mmHg 43%
    13:00 +21°C° 0 mm 2 m/s 755 mmHg 44%
    14:00 +23°C° 0 mm 2 m/s 754 mmHg 45%
    15:00 +21°C° 0 mm 2 m/s 754 mmHg 50%
    16:00 +20°C° 0 mm 2 m/s 754 mmHg 56%
    17:00 +19°C° 0 mm 2 m/s 754 mmHg 62%
    18:00 +17°C° 0 mm 2 m/s 754 mmHg 71%
    19:00 +14°C° 0 mm 2 m/s 754 mmHg 79%
    20:00 +12°C° 0 mm 2 m/s 755 mmHg 88%
    21:00 +12°C° 0 mm 2 m/s 755 mmHg 88%
    22:00 +10°C° 0 mm 2 m/s 755 mmHg 88%
    23:00 +10°C° 0 mm 2 m/s 755 mmHg 88%

    Après-demain, 20 Novembre, Lundi

    Heure Température Précipitation Vent Pression Humidité
    00:00 +10°C° 0 mm 2 m/s 755 mmHg 87%
    01:00 +10°C° 0 mm 3 m/s 754 mmHg 85%
    02:00 +10°C° 0 mm 3 m/s 754 mmHg 84%
    03:00 +11°C° 0 mm 3 m/s 754 mmHg 86%
    04:00 +11°C° 0 mm 3 m/s 754 mmHg 88%
    05:00 +11°C° 0 mm 3 m/s 754 mmHg 90%
    06:00 +12°C° 0 mm 4 m/s 755 mmHg 88%
    07:00 +13°C° 0 mm 4 m/s 755 mmHg 86%
    08:00 +14°C° 0 mm 4 m/s 755 mmHg 83%
    09:00 +15°C° 0 mm 4 m/s 755 mmHg 80%
    10:00 +17°C° 0 mm 4 m/s 755 mmHg 76%
    11:00 +17°C° 0 mm 4 m/s 755 mmHg 72%
    12:00 +18°C° 0 mm 4 m/s 755 mmHg 70%
    13:00 +18°C° 0 mm 4 m/s 755 mmHg 68%
    14:00 +19°C° 0 mm 4 m/s 754 mmHg 66%
    15:00 +18°C° 0 mm 3 m/s 754 mmHg 72%
    16:00 +17°C° 0 mm 3 m/s 754 mmHg 78%
    17:00 +16°C° 0 mm 2 m/s 754 mmHg 84%
    18:00 +15°C° 0,1 mm 2 m/s 754 mmHg 87%
    19:00 +14°C° 0,1 mm 1 m/s 755 mmHg 91%
    20:00 +14°C° 0,1 mm 1 m/s 755 mmHg 95%
    21:00 +14°C° 0,1 mm 1 m/s 755 mmHg 95%
    22:00 +14°C° 0,1 mm 2 m/s 755 mmHg 96%
    23:00 +14°C° 0,1 mm 2 m/s 755 mmHg 96%

    21 Novembre, Mardi

    Heure Température Précipitation Vent Pression Humidité
    00:00 +13°C° 0,1 mm 2 m/s 755 mmHg 97%
    01:00 +13°C° 0,1 mm 2 m/s 755 mmHg 97%
    02:00 +12°C° 0,1 mm 3 m/s 755 mmHg 97%
    03:00 +12°C° 0,1 mm 3 m/s 755 mmHg 97%
    04:00 +12°C° 0,1 mm 3 m/s 755 mmHg 97%
    05:00 +12°C° 0,1 mm 4 m/s 755 mmHg 97%
    06:00 +12°C° 0,1 mm 4 m/s 756 mmHg 94%
    07:00 +13°C° 0,1 mm 4 m/s 756 mmHg 90%
    08:00 +14°C° 0,1 mm 4 m/s 756 mmHg 87%
    09:00 +14°C° 0 mm 4 m/s 757 mmHg 81%
    10:00 +15°C° 0 mm 4 m/s 757 mmHg 76%
    11:00 +17°C° 0 mm 4 m/s 757 mmHg 70%
    12:00 +18°C° 0 mm 4 m/s 757 mmHg 67%
    13:00 +19°C° 0 mm 4 m/s 756 mmHg 64%
    14:00 +20°C° 0 mm 4 m/s 756 mmHg 61%
    15:00 +19°C° 0 mm 3 m/s 756 mmHg 66%
    16:00 +18°C° 0 mm 3 m/s 757 mmHg 70%
    17:00 +17°C° 0 mm 3 m/s 757 mmHg 74%
    18:00 +15°C° 0 mm 2 m/s 757 mmHg 81%
    19:00 +13°C° 0 mm 2 m/s 758 mmHg 88%
    20:00 +12°C° 0 mm 1 m/s 758 mmHg 96%
    21:00 +11°C° 0 mm 1 m/s 758 mmHg 96%
    22:00 +11°C° 0 mm 1 m/s 758 mmHg 96%
    23:00 +11°C° 0 mm 1 m/s 758 mmHg 97%

    22 Novembre, Mercredi

    Heure Température Précipitation Vent Pression Humidité
    00:00 +11°C° 0 mm 1 m/s 758 mmHg 96%
    01:00 +11°C° 0 mm 1 m/s 758 mmHg 95%
    02:00 +11°C° 0 mm 1 m/s 757 mmHg 94%
    03:00 +11°C° 0 mm 1 m/s 757 mmHg 91%
    04:00 +12°C° 0 mm 1 m/s 758 mmHg 89%
    05:00 +13°C° 0 mm 1 m/s 758 mmHg 87%
    06:00 +15°C° 0 mm 1 m/s 758 mmHg 78%
    07:00 +19°C° 0 mm 1 m/s 758 mmHg 69%
    08:00 +21°C° 0 mm 1 m/s 758 mmHg 61%
    09:00 +21°C° 0 mm 2 m/s 758 mmHg 58%
    10:00 +24°C° 0 mm 2 m/s 758 mmHg 56%
    11:00 +25°C° 0 mm 2 m/s 758 mmHg 54%
    12:00 +25°C° 0 mm 2 m/s 757 mmHg 55%
    13:00 +25°C° 0 mm 2 m/s 757 mmHg 57%
    14:00 +25°C° 0 mm 2 m/s 757 mmHg 58%
    15:00 +24°C° 0 mm 2 m/s 757 mmHg 64%
    16:00 +21°C° 0 mm 2 m/s 757 mmHg 69%
    17:00 +20°C° 0 mm 2 m/s 757 mmHg 75%
    18:00 +19°C° 0 mm 1 m/s 758 mmHg 83%
    19:00 +16°C° 0 mm 1 m/s 758 mmHg 90%
    20:00 +14°C° 0 mm 1 m/s 759 mmHg 97%
    21:00 +14°C° 0 mm 1 m/s 759 mmHg 97%
    22:00 +14°C° 0 mm 1 m/s 759 mmHg 98%
    23:00 +14°C° 0 mm 1 m/s 759 mmHg 98%

    23 Novembre, Jeudi

    Heure Température Précipitation Vent Pression Humidité
    00:00 +14°C° 0 mm 1 m/s 759 mmHg 97%
    01:00 +14°C° 0 mm 1 m/s 758 mmHg 97%
    02:00 +13°C° 0 mm 0 m/s 758 mmHg 96%
    03:00 +13°C° 0 mm 0 m/s 758 mmHg 95%
    04:00 +14°C° 0 mm 0 m/s 758 mmHg 93%
    05:00 +14°C° 0 mm 0 m/s 759 mmHg 92%
    06:00 +16°C° 0 mm 0 m/s 759 mmHg 83%
    07:00 +21°C° 0 mm 1 m/s 759 mmHg 74%
    08:00 +23°C° 0 mm 1 m/s 759 mmHg 65%
    09:00 +24°C° 0 mm 2 m/s 759 mmHg 64%
    10:00 +24°C° 0 mm 2 m/s 759 mmHg 63%
    11:00 +25°C° 0 mm 3 m/s 758 mmHg 61%
    12:00 +25°C° 0,2 mm 3 m/s 758 mmHg 62%
    13:00 +25°C° 0,2 mm 4 m/s 758 mmHg 64%
    14:00 +25°C° 0,2 mm 4 m/s 757 mmHg 65%
    15:00 +23°C° 0,1 mm 4 m/s 757 mmHg 68%
    16:00 +22°C° 0,1 mm 4 m/s 757 mmHg 71%
    17:00 +21°C° 0,1 mm 3 m/s 757 mmHg 75%
    18:00 +19°C° 0 mm 3 m/s 758 mmHg 81%
    19:00 +17°C° 0 mm 3 m/s 758 mmHg 87%
    20:00 +16°C° 0 mm 3 m/s 758 mmHg 93%
    21:00 +15°C° 0 mm 2 m/s 758 mmHg 94%
    22:00 +15°C° 0 mm 2 m/s 758 mmHg 94%
    23:00 +15°C° 0 mm 2 m/s 758 mmHg 95%
    Voir plus